Terminal Aerodrome Forecast
Issued by NWS

Home | Current Version | Previous Version | Text Only | Print | Product List | Glossary On
Versions: 1 2 3 4 5 6 7 8 9 10 11 12 13 14 15 16 17 18 19 20 21
000
FTUS46 KMTR 110200 AAA
TAFMRY
TAF AMD
KMRY 110207Z 1102/1124 20010KT P6SM SKC
     FM110330 20008KT P6SM BKN015
     FM110600 20004KT P6SM OVC012
     FM110900 VRB03KT P6SM OVC008
     FM111500 VRB03KT P6SM OVC012
     FM111900 VRB03KT P6SM SCT020=

USA.gov is the U.S. government's official web portal to all federal, state and local government web resources and services.